sat.trackr.live / text

‹ back to catalog

STARLINK-32729

NORAD 62497 · 2025-003L

PAYLOAD ACTIVE UNKNOWN

§ Identity

Operator
Country
US
Launch date
2025-01-06
Launch site
AFETR
Launch vehicle
Mass (kg)
RCS (m²)

Purposes: comms

External: N2YO · Heavens-Above · Gunter

§ Orbital elements

Epoch: 2026-05-24T22:14:49.406208Z

Period
94.27 min
Inclination
43.0016°
Eccentricity
0.0002431
Mean motion
15.27584821 rev/d
Perigee alt
481.4 km
Apogee alt
484.7 km
Semi-major
6,861.2 km
B*
4.8541e-4
RAAN
218.2006°
Arg perigee
281.6237°
Mean anomaly
78.4342°
Rev number
7,833

§ Raw data

STARLINK-327291 62497U 25003L   26144.92696072  .00013121  00000+0  48541-3 0  99982 62497  43.0016 218.2006 0002431 281.6237  78.4342 15.27584821 78334

JSON: /api/v1/satellites/62497 · /tle

For live sub-satellite position, see the globe view (requires WebGL).

§ Visibility from observer

Set your observer location to see the next 7 days of passes ≥ 10°. The values pass through the URL so the page stays shareable.

No JS? Fill the form by hand. The geolocation button needs JavaScript.